Terug naar catalogus

COSMOS 2251 DEB

ActiefLEO
NORAD 40792·DEBRIS·🇷🇺 Russia

Gelanceerd Jun 16, 1993 vanaf Plesetsk Cosmodrome

Loading…

Volgende Passages (komende 24 uur)

TLE

VerouderendSource: Space-Track

Epoch: Sep 11, 2026, 07:23 UTC

1 40792U 93036BVV 26254.30795520  .00003190  00000-0  53191-3 0  9998
2 40792  74.0409 239.9402 0020126 273.1865 150.6092 14.70294433671879

Volg COSMOS 2251 DEB in realtime met AllMySat

Download on the App Store